Regional Weather Roundup
Issued by NWS Newport/Morehead, NC

Home | Current Version | Previous Version | Text Only | Print | Product List | Glossary On
Versions: 1 2 3 4 5 6 7 8 9 10 11 12 13 14 15 16 17 18 19 20 21 22 23 24 25 26 27 28 29 30 31 32 33 34 35 36 37 38 39 40 41 42 43 44 45 46 47 48 49 50
000
ASUS42 KMHX 150410
RWRMHX
WEATHER ROUNDUP FOR EASTERN NORTH CAROLINA
NATIONAL WEATHER SERVICE NEWPORT/MOREHEAD CITY NC
1200 AM EDT MON SEP 15 2014

NOTE: "FAIR" INDICATES FEW OR NO CLOUDS BELOW 12,000 FEET
WITH NO SIGNIFICANT WEATHER AND/OR OBSTRUCTIONS TO VISIBILITY

NCZ015>017-031-032-045>047-102-103-150500-
NORTH COAST

CITY           SKY/WX    TMP DP  RH WIND       PRES   REMARKS
EDENTON        CLEAR     64  61  91 N3        30.21S
ELIZABETH CITY MOCLDY    67  57  70 N9        30.21S
KITTY HAWK     CLOUDY    68  57  67 N7        30.18F
MANTEO         CLOUDY    68  57  68 N9        30.19F

$$

NCZ045>047-081-094-103-104-150500-
CENTRAL COAST

CITY           SKY/WX    TMP DP  RH WIND       PRES   REMARKS
FRISCO         CLOUDY    68  63  84 NE7       30.17F
SWANQUARTER      N/A     64 N/A N/A N2        30.15F

$$

NCZ095-097-098-100-101-150500-
SOUTHERN COAST

CITY           SKY/WX    TMP DP  RH WIND       PRES   REMARKS
BEAUFORT       CLEAR     69  63  81 NE3       30.18F
CEDAR ISLAND     N/A     72 N/A N/A NE10G16   30.21S
JACKSONVILLE   CLOUDY    70  67  90 MISG      30.19S
NEWPORT        NOT AVBL
PINEY ISLAND   CLEAR     72  60  66 N8        30.18S
WILMINGTON     CLOUDY    70  67  90 N5        30.19S


$$

NCZ011>013-027>030-043-044-078>080-089-090>093-098-150500-
COASTAL PLAIN

CITY           SKY/WX    TMP DP  RH WIND       PRES   REMARKS
AHOSKIE        CLEAR     60  58  95 CALM      30.23S
CLINTON        CLOUDY    69  67  93 CALM      30.21S
ELIZABETHTOWN  CLOUDY    69  65  86 CALM      30.21S
GOLDSBORO      MOCLDY    66  65  98 CALM      30.20S
GREENVILLE     PTCLDY    63  63 100 N3        30.22F
HAVELOCK       CLEAR     69  63  81 NE5       30.20S
KENANSVILLE    NOT AVBL
KINSTON        MOCLDY    67  65  93 N5        30.21F
NEW BERN       CLOUDY    69  61  75 NE5       30.21R
RICHLANDS      CLOUDY    70  64  83 N3        30.20S
ROANOKE RAPIDS NOT AVBL
ROCKY MOUNT    CLOUDY    64  59  83 N6        30.22F
WASHINGTON     CLOUDY    66  60  82 CALM      30.21S
WHITEVILLE     CLOUDY    68  65  92 CALM      30.20S

$$

AMZ130-135-150-152-154-156-158-170-250-252-270-ANZ085-086-088-633-658-670-150500-
MARINE OBSERVATIONS

STATION/POSITION TIME  TEMP    WIND        PRES    WAVE   SWELL
                       AIR SEA DIR/SP/G            HT/PER HT/PER
                 (UTC) (F)     (DEG/KT/KT) (MB)    (FT/S) (FT/S)
CHESAPEAKE LIGHT 0300   68      20/  6/  7 1023.7
BUOY 44014       0400   70 79  360/ 10/ 12 1021.6    3/ 7   3/ 7
DUCK             0400   70 76  360/ 11/ 13 1021.7
2E DUCK          0400                        N/A     3/ 7
OREGON INLET     0400   70 76   20/  8/ 13 1021.9
BUOY 44095       0400      76                N/A     4/ 7
20E OREGON INLET NOT AVBL
HATTERAS CG      0400   72 79   30/  8/ 12 1022.0
DIAMOND BUOY     0400   73     360/ 14/ 17 1021.0    4/ 8   2/ 8
CAPE LOOKOUT     0300   71      20/  9/ 12 1021.9
BEAUFORT LAB     0400   69 80   40/  4/  6 1021.5
30 SE NEW RIVER  0400   75 82   50/ 12/ 14 1022.1    3/ 4   2/ 6
5 SE WRIGHTSVILL 0300   72 82   40/ 12/ 14   N/A
BUOY 41002       0339   80 83  240/ 12/ 14 1021.4    2/ 5   2/ 8
BUOY 41004       0400   80 83  130/  2/  4 1021.1    3/ 6   3/ 6

$$


USA.gov is the U.S. government's official web portal to all federal, state and local government web resources and services.